Weather History for KBEH - October, 2013

Change the Weather History Date:

Thursday, October 31, 2013

  Actual Average Record
Temperature  
Mean Temperature 56 °F -  
Max Temperature 63 °F 58 °F 82 °F (1950)
Min Temperature 51 °F 36 °F 15 °F (1988)
Degree Days  
Heating Degree Days 8    
Growing Degree Days 6 (Base 50)    
Moisture  
Dew Point 60 °F    
Average Humidity 100    
Maximum Humidity 100    
Minimum Humidity 93    
Precipitation  
Precipitation 2.73 in - - ()
Sea Level Pressure  
Sea Level Pressure 29.55 in    
Wind  
Wind Speed 10 mph (SSW)    
Max Wind Speed 28 mph    
Max Gust Speed 34 mph    
Visibility 4 miles    
Events Rain    
Averages and records for this station are not official NWS values.
T = Trace of Precipitation, MM = Missing Value Source: NWS Daily Summary

Daily Weather History Graph

Daily Weather History Graph

Search for Another Location

Airport or City:

Trip Planner

Search our weather history database for the weather conditions in past years. The results will help you decide how hot, cold, wet, or windy it might be!

Date:

Astronomy

Oct. 31, 2013 Rise Set
Actual Time 8:17 AM EDT 6:40 PM EDT
Civil Twilight 7:48 AM EDT 7:09 PM EDT
Nautical Twilight 7:15 AM EDT 7:42 PM EDT
Astronomical Twilight 6:43 AM EDT 8:14 PM EDT
Moon 5:03 AM EDT (10/31) 5:00 PM EDT (10/31)
Length of Visible Light 11h 20m
Length of Day
10h 22m
Waning Crescent, 10% of the Moon is Illuminated
Oct 31
Waning Crescent
Nov 3
New
Nov 10
First Quarter
Nov 17
Full
Nov 25
Last Quarter

Hourly Weather History & Observations

Time (EDT) Temp. Dew Point Humidity Pressure Visibility Wind Dir Wind Speed Gust Speed Precip Events Conditions
12:01 AM 57.2 °F 57.2 °F 100% 29.83 in 3.0 mi ESE 11.5 mph - 0.01 in Rain Rain
12:34 AM 59.0 °F 59.0 °F 100% 29.81 in 3.0 mi SSE 8.1 mph - 0.04 in Rain Light Rain
12:53 AM 59.0 °F 59.0 °F 100% 29.79 in 6.0 mi SSE 9.2 mph 17.3 mph 0.04 in Rain Light Rain
1:04 AM 59.0 °F 59.0 °F 100% 29.79 in 2.5 mi SSE 6.9 mph - 0.04 in Rain Rain
1:09 AM 59.0 °F 59.0 °F 100% 29.79 in 3.0 mi South 6.9 mph - 0.05 in Rain Rain
1:24 AM 60.8 °F 60.8 °F 100% 29.77 in 1.8 mi South 8.1 mph - 0.15 in Rain Heavy Rain
1:38 AM 60.8 °F 60.8 °F 100% 29.77 in 2.5 mi South 6.9 mph - 0.19 in Rain Rain
1:53 AM 61.0 °F 61.0 °F 100% 29.77 in 3.0 mi SW 6.9 mph - 0.21 in Rain Rain
2:06 AM 62.6 °F 60.8 °F 94% 29.77 in 2.5 mi SSW 8.1 mph - 0.04 in Rain Rain
2:34 AM 62.6 °F 62.6 °F 100% 29.76 in 3.0 mi SW 11.5 mph 18.4 mph 0.12 in Rain Rain
2:40 AM 62.6 °F 62.6 °F 100% 29.75 in 3.0 mi SW 11.5 mph 20.7 mph 0.14 in Rain Rain
2:53 AM 62.1 °F 61.0 °F 96% 29.75 in 5.0 mi SSW 11.5 mph 20.7 mph 0.16 in Rain Rain
3:03 AM 62.6 °F 62.6 °F 100% 29.74 in 2.5 mi SW 12.7 mph 19.6 mph 0.04 in Rain Rain
3:14 AM 62.6 °F 62.6 °F 100% 29.74 in 3.0 mi SSW 9.2 mph - 0.07 in Rain Light Rain
3:22 AM 62.6 °F 62.6 °F 100% 29.74 in 1.8 mi SSW 9.2 mph - 0.13 in Rain Heavy Rain
3:32 AM 62.6 °F 62.6 °F 100% 29.73 in 3.0 mi SSW 9.2 mph - 0.15 in Rain Light Rain
3:42 AM 62.6 °F 62.6 °F 100% 29.73 in 2.0 mi SW 10.4 mph - 0.21 in Rain Heavy Rain
3:46 AM 62.6 °F 62.6 °F 100% 29.73 in 1.2 mi SW 8.1 mph - 0.27 in Rain Heavy Rain
3:53 AM 62.1 °F 62.1 °F 100% 29.73 in 1.5 mi SSW 8.1 mph - 0.29 in Rain Rain
4:07 AM 62.6 °F 62.6 °F 100% 29.72 in 3.0 mi SW 17.3 mph 28.8 mph 0.05 in Rain Rain
4:17 AM 62.6 °F 62.6 °F 100% 29.72 in 2.5 mi SW 10.4 mph 23.0 mph 0.08 in Rain Rain
4:27 AM 62.6 °F 62.6 °F 100% 29.72 in 3.0 mi SSW 15.0 mph 24.2 mph 0.11 in Rain Rain
4:39 AM 62.6 °F 60.8 °F 94% 29.71 in 2.5 mi SSW 12.7 mph 23.0 mph 0.16 in Rain Rain
4:45 AM 62.6 °F 60.8 °F 94% 29.71 in 3.0 mi SSW 13.8 mph 24.2 mph 0.18 in Rain Rain
4:53 AM 62.1 °F 60.1 °F 93% 29.70 in 3.0 mi SSW 12.7 mph 25.3 mph 0.19 in Rain Rain
5:06 AM 60.8 °F 60.8 °F 100% 29.70 in 3.0 mi SSW 13.8 mph 21.9 mph 0.03 in Rain Rain
5:20 AM 60.8 °F 60.8 °F 100% 29.70 in 2.5 mi SSW 13.8 mph 23.0 mph 0.08 in Rain Heavy Rain
5:34 AM 60.8 °F 60.8 °F 100% 29.69 in 3.0 mi SSW 11.5 mph 24.2 mph 0.13 in Rain Rain
5:53 AM 61.0 °F 61.0 °F 100% 29.68 in - SSW 8.1 mph 18.4 mph 0.18 in Rain Rain
6:07 AM 60.8 °F 60.8 °F 100% 29.69 in 2.5 mi SSW 8.1 mph - 0.05 in Rain Rain
6:16 AM 60.8 °F 60.8 °F 100% 29.68 in 3.0 mi South 6.9 mph - 0.08 in Rain Rain
6:31 AM 60.8 °F 60.8 °F 100% 29.67 in 2.0 mi South 9.2 mph 18.4 mph 0.18 in Rain Heavy Rain
6:38 AM 60.8 °F 60.8 °F 100% 29.67 in 1.8 mi South 15.0 mph 21.9 mph 0.24 in Rain Heavy Rain
6:43 AM 60.8 °F 60.8 °F 100% 29.67 in 1.8 mi South 13.8 mph 21.9 mph 0.27 in Rain Heavy Rain
6:51 AM 60.8 °F 60.8 °F 100% 29.67 in 2.5 mi SSW 8.1 mph 21.9 mph 0.30 in Rain Heavy Rain
6:53 AM 60.1 °F 60.1 °F 100% 29.67 in 3.0 mi SSW 6.9 mph - 0.31 in Rain Rain
7:09 AM 60.8 °F 60.8 °F 100% 29.66 in 2.0 mi SSW 9.2 mph - 0.06 in Rain Heavy Rain
7:18 AM 60.8 °F 60.8 °F 100% 29.66 in 1.8 mi SSW 6.9 mph - 0.11 in Rain Heavy Rain
7:29 AM 60.8 °F 60.8 °F 100% 29.65 in 2.0 mi South 6.9 mph - 0.15 in Rain Heavy Rain
7:41 AM 60.8 °F 60.8 °F 100% 29.65 in 1.8 mi South 12.7 mph 16.1 mph 0.21 in Rain Heavy Rain
7:53 AM 60.1 °F 60.1 °F 100% 29.64 in 1.5 mi South 6.9 mph - 0.28 in Rain Heavy Rain
8:06 AM 60.8 °F 60.8 °F 100% 29.63 in 2.0 mi SSW 3.5 mph - 0.05 in Rain Rain
8:19 AM 60.8 °F 60.8 °F 100% 29.63 in 1.5 mi West 6.9 mph - 0.11 in Rain Heavy Rain
8:23 AM 60.8 °F 60.8 °F 100% 29.63 in 1.2 mi West 5.8 mph - 0.14 in Rain Heavy Rain
8:31 AM 59.0 °F 59.0 °F 100% 29.63 in 1.5 mi WSW 5.8 mph - 0.18 in Rain Heavy Rain
8:46 AM 59.0 °F 59.0 °F 100% 29.62 in 1.2 mi WSW 6.9 mph - 0.27 in Rain Heavy Rain
8:53 AM 59.0 °F 59.0 °F 100% 29.61 in 1.2 mi WSW 8.1 mph - 0.31 in Rain Heavy Rain
9:12 AM 59.0 °F 59.0 °F 100% 29.61 in 1.5 mi WSW 4.6 mph - 0.10 in Rain Heavy Rain
9:26 AM 59.0 °F 59.0 °F 100% 29.61 in 1.2 mi Calm Calm - 0.17 in Rain Heavy Rain
9:39 AM 60.8 °F 60.8 °F 100% 29.60 in 1.8 mi South 4.6 mph - 0.23 in Rain Rain
9:53 AM 61.0 °F 61.0 °F 100% 29.60 in 1.8 mi South 9.2 mph - 0.25 in Rain Rain
10:10 AM 60.8 °F 60.8 °F 100% 29.59 in 2.5 mi SSW 9.2 mph - 0.04 in Rain Rain
10:53 AM 61.0 °F 61.0 °F 100% 29.58 in 4.0 mi SSW 10.4 mph 17.3 mph 0.10 in Rain Light Rain
11:26 AM 60.8 °F 60.8 °F 100% 29.56 in 5.0 mi South 8.1 mph - 0.01 in Rain Light Rain
11:53 AM 61.0 °F 61.0 °F 100% 29.55 in 5.0 mi SSW 9.2 mph - 0.02 in Rain Light Rain
12:19 PM 60.8 °F 60.8 °F 100% 29.55 in 4.0 mi South 9.2 mph - 0.02 in Rain Light Rain
12:53 PM 61.0 °F 61.0 °F 100% 29.52 in 6.0 mi South 9.2 mph - 0.04 in Rain Light Rain
1:48 PM 60.8 °F 60.8 °F 100% 29.47 in 1.8 mi SSE 10.4 mph - 0.01 in Rain Light Rain
1:53 PM 61.0 °F 61.0 °F 100% 29.47 in 1.5 mi South 8.1 mph - 0.01 in Rain Light Rain
2:03 PM 60.8 °F 60.8 °F 100% 29.47 in 1.0 mi South 8.1 mph - 0.04 in Rain Rain
2:18 PM 60.8 °F 60.8 °F 100% 29.45 in 2.0 mi South 13.8 mph 20.7 mph 0.05 in Rain Light Rain
2:24 PM 60.8 °F 60.8 °F 100% 29.44 in 3.0 mi South 10.4 mph 20.7 mph 0.05 in Rain Light Rain
2:37 PM 60.8 °F 60.8 °F 100% 29.43 in 8.0 mi South 12.7 mph 19.6 mph 0.06 in Rain Light Rain
2:53 PM 60.1 °F 60.1 °F 100% 29.41 in 9.0 mi South 10.4 mph 16.1 mph 0.06 in Rain Light Rain
3:53 PM 60.1 °F 59.0 °F 96% 29.36 in 8.0 mi South 8.1 mph 17.3 mph 0.01 in   Overcast
4:46 PM 59.0 °F 59.0 °F 100% 29.32 in 1.8 mi South 11.5 mph - N/A   Overcast
4:53 PM 59.0 °F 59.0 °F 100% 29.31 in 1.8 mi South 10.4 mph - N/A   Overcast
5:00 PM 59.0 °F 59.0 °F 100% 29.31 in 2.0 mi South 9.2 mph 19.6 mph N/A   Overcast
5:17 PM 59.0 °F 59.0 °F 100% 29.30 in 4.0 mi South 9.2 mph - 0.00 in   Overcast
5:53 PM 59.0 °F 59.0 °F 100% 29.26 in 2.5 mi SSE 8.1 mph - 0.00 in   Overcast
6:10 PM 59.0 °F 59.0 °F 100% 29.25 in 4.0 mi SSE 11.5 mph - N/A   Overcast
6:53 PM 59.0 °F 59.0 °F 100% 29.22 in 4.0 mi South 11.5 mph - N/A   Overcast
7:53 PM 60.1 °F 60.1 °F 100% 29.18 in 10.0 mi South 11.5 mph 19.6 mph 0.01 in   Overcast
8:07 PM 60.8 °F 60.8 °F 100% 29.18 in 10.0 mi South 10.4 mph 20.7 mph N/A   Overcast
8:50 PM 57.2 °F 57.2 °F 100% 29.20 in 9.0 mi West 24.2 mph 32.2 mph N/A   Overcast
8:53 PM 57.9 °F 57.0 °F 97% 29.20 in 9.0 mi West 23.0 mph 31.1 mph N/A   Overcast
9:38 PM 55.4 °F 55.4 °F 100% 29.22 in 10.0 mi West 15.0 mph 26.5 mph N/A   Overcast
9:53 PM 55.9 °F 55.0 °F 97% 29.22 in 10.0 mi West 17.3 mph 24.2 mph N/A   Overcast
10:01 PM 55.4 °F 55.4 °F 100% 29.22 in 6.0 mi West 19.6 mph 26.5 mph 0.00 in Rain Light Rain
10:10 PM 53.6 °F 53.6 °F 100% 29.23 in 1.8 mi West 20.7 mph 32.2 mph 0.06 in Rain Heavy Rain
10:17 PM 53.6 °F 53.6 °F 100% 29.23 in 3.0 mi West 25.3 mph 32.2 mph 0.07 in Rain Light Rain
10:38 PM 53.6 °F 53.6 °F 100% 29.27 in 2.5 mi West 27.6 mph 34.5 mph 0.15 in Rain Rain
10:46 PM 53.6 °F 53.6 °F 100% 29.27 in 4.0 mi West 26.5 mph 34.5 mph 0.16 in Rain Rain
10:53 PM 52.0 °F 52.0 °F 100% 29.28 in 4.0 mi West 21.9 mph 34.5 mph 0.17 in Rain Rain
11:07 PM 51.8 °F 51.8 °F 100% 29.29 in 4.0 mi West 23.0 mph 29.9 mph 0.04 in Rain Rain
11:26 PM 51.8 °F 51.8 °F 100% 29.30 in 5.0 mi WSW 18.4 mph 27.6 mph 0.07 in Rain Rain
11:36 PM 51.8 °F 51.8 °F 100% 29.30 in 7.0 mi WSW 18.4 mph - 0.08 in Rain Light Rain
11:53 PM 52.0 °F 51.1 °F 97% 29.28 in 9.0 mi West 13.8 mph - 0.09 in Rain Light Rain